GW3755 Weather Reports


time (UTC)temp
C
wind
direction
speed
KPH
gust
KPH
rain 1hr
cm
rain 24hr
cm
rain mn
cm
humidity
%
barometer
mb
20260906051605 22 162 0.0 1.6 0.00 0.00 0.00 91 1013.8
20260906050110 22 0 0.0 0.0 0.00 0.00 0.00 90 1014.1
20260906044604 23 0 0.0 3.2 0.00 0.00 0.00 90 1014.1
20260906043103 23 0 0.0 0.0 0.00 0.00 0.00 89 1014.0
20260906041604 23 0 0.0 1.6 0.00 0.00 0.00 90 1013.7
20260906034627 23 0 0.0 0.0 0.00 0.00 0.00 90 1014.1
20260906033102 23 0 0.0 0.0 0.00 0.00 0.00 91 1014.0
20260906031601 23 0 0.0 1.6 0.00 0.00 0.00 90 1014.0
20260906024602 23 0 0.0 1.6 0.00 0.00 0.00 90 1014.1
20260906023101 23 0 0.0 0.0 0.00 0.00 0.00 90 1014.2
20260906021611 23 0 0.0 3.2 0.00 0.00 0.00 90 1014.0
20260906020116 23 0 0.0 3.2 0.00 0.00 0.00 90 1014.0
20260906014559 23 200 0.0 3.2 0.00 0.00 0.00 89 1013.7
20260906013108 23 0 0.0 0.0 0.00 0.00 0.00 88 1013.6
20260906011604 23 0 0.0 1.6 0.00 0.00 0.00 87 1013.6
20260906010104 24 0 0.0 1.6 0.00 0.00 0.00 87 1013.5
20260906004603 24 0 0.0 0.0 0.00 0.00 0.00 86 1013.3
20260906003102 24 0 0.0 0.0 0.00 0.00 0.00 85 1013.1
20260906001604 25 0 0.0 1.6 0.00 0.00 0.00 84 1013.0
20260906000109 25 0 0.0 3.2 0.00 0.00 0.00 82 1013.0
20260905234621 25 0 0.0 1.6 0.00 0.00 0.00 80 1012.8
20260905233101 26 0 0.0 3.2 0.00 0.00 0.00 78 1012.7
20260905231615 26 0 0.0 0.0 0.00 0.00 0.00 75 1012.7
20260905230120 27 0 0.0 1.6 0.00 0.00 0.00 76 1012.8
20260905224612 27 0 0.0 1.6 0.00 0.00 0.00 76 1012.8
20260905223120 27 0 0.0 1.6 0.00 0.00 0.00 76 1012.9
20260905221602 27 0 0.0 4.8 0.00 0.00 0.00 77 1012.7
20260905220121 27 5 0.0 3.2 0.00 0.00 0.00 77 1012.9
20260905214623 27 0 0.0 1.6 0.00 0.00 0.00 78 1013.1
20260905213119 26 0 0.0 1.6 0.00 0.00 0.00 79 1013.1
20260905211620 26 0 0.0 4.8 0.00 0.00 0.00 79 1013.6
20260905210114 26 0 0.0 1.6 0.00 0.00 0.00 82 1013.7
20260905204607 26 57 1.6 8.0 0.00 0.00 0.00 82 1013.9
20260905203111 27 271 0.0 4.8 0.00 0.00 0.00 79 1013.3
20260905201603 26 0 1.6 4.8 0.00 0.00 0.00 80 1013.2
20260905200108 26 0 1.6 6.4 0.00 0.00 0.00 80 1013.2
20260905194600 26 0 0.0 6.4 0.00 0.00 0.00 75 1013.5
20260905193105 27 15 3.2 20.9 0.00 0.00 0.00 72 1013.3
20260905191612 31 310 6.4 19.3 0.00 0.00 0.00 56 1014.2
20260905184616 33 337 0.0 3.2 0.00 0.00 0.00 56 1013.3
20260905183104 34 0 0.0 3.2 0.00 0.00 0.00 51 1012.9
20260905181610 35 325 0.0 4.8 0.00 0.00 0.00 49 1013.2
20260905180108 36 0 0.0 4.8 0.00 0.00 0.00 46 1013.5
20260905174606 35 0 1.6 4.8 0.00 0.00 0.00 50 1013.7
20260905173104 36 104 0.0 3.2 0.00 0.00 0.00 50 1013.9
20260905171635 35 45 0.0 8.0 0.00 0.00 0.00 51 1014.3
20260905170107 35 298 0.0 6.4 0.00 0.00 0.00 59 1014.5
20260905164605 35 133 0.0 6.4 0.00 0.00 0.00 56 1014.7
20260905163108 35 5 0.0 4.8 0.00 0.00 0.00 59 1014.8
20260905161605 35 5 0.0 4.8 0.00 0.00 0.00 56 1015.0
20260905160111 34 0 0.0 4.8 0.00 0.00 0.00 61 1015.0
20260905154646 33 95 0.0 4.8 0.00 0.00 0.00 60 1015.2
20260905153104 34 5 0.0 4.8 0.00 0.00 0.00 60 1015.2
20260905151602 33 190 0.0 4.8 0.00 0.00 0.00 63 1015.3
20260905150109 33 0 0.0 6.4 0.00 0.00 0.00 64 1015.3
20260905144610 33 249 0.0 3.2 0.00 0.00 0.00 66 1015.4
20260905143107 32 211 1.6 6.4 0.00 0.00 0.00 68 1015.4
20260905141605 31 192 0.0 3.2 0.00 0.00 0.00 71 1015.4
20260905140108 30 0 0.0 4.8 0.00 0.00 0.00 73 1015.6
20260905134608 30 204 0.0 3.2 0.00 0.00 0.00 76 1015.6
20260905133107 29 0 0.0 1.6 0.00 0.00 0.00 79 1015.8
20260905131603 28 0 0.0 4.8 0.00 0.00 0.00 81 1015.8
20260905124603 26 0 0.0 0.0 0.00 0.00 0.00 85 1015.6
20260905123103 25 0 0.0 0.0 0.00 0.00 0.00 87 1015.5
20260905121608 25 0 0.0 0.0 0.00 0.00 0.00 89 1015.6
20260905120104 24 0 0.0 0.0 0.00 0.00 0.00 91 1015.5
20260905114609 23 0 0.0 0.0 0.00 0.00 0.00 91 1015.5
20260905113100 23 0 0.0 0.0 0.00 0.00 0.00 91 1015.1
20260905111629 23 0 0.0 0.0 0.00 0.00 0.00 91 1014.9
20260905110112 23 0 0.0 0.0 0.00 0.00 0.00 91 1014.7
20260905104619 23 0 0.0 0.0 0.00 0.00 0.00 90 1014.6
20260905103102 23 0 0.0 0.0 0.00 0.00 0.00 90 1014.4
20260905101605 23 0 0.0 0.0 0.00 0.00 0.00 90 1014.2
20260905100104 23 0 0.0 1.6 0.00 0.00 0.00 89 1014.2
20260905094719 23 0 0.0 1.6 0.00 0.00 0.00 89 1014.1
20260905093131 23 0 0.0 1.6 0.00 0.00 0.00 89 1014.0
20260905091604 23 0 0.0 3.2 0.00 0.00 0.00 89 1014.3
20260905090104 23 0 0.0 0.0 0.00 0.00 0.00 88 1014.3
20260905084607 23 0 0.0 1.6 0.00 0.00 0.00 88 1014.4
20260905083103 24 205 0.0 3.2 0.00 0.00 0.00 88 1014.5
20260905081605 23 0 0.0 0.0 0.00 0.00 0.00 88 1014.6
20260905080121 23 0 0.0 1.6 0.00 0.00 0.00 88 1014.8
20260905074606 23 0 0.0 0.0 0.00 0.00 0.00 87 1014.8
20260905073111 24 0 0.0 1.6 0.00 0.00 0.00 86 1015.0
20260905071603 24 0 0.0 0.0 0.00 0.00 0.00 85 1015.1
20260905070100 25 0 0.0 0.0 0.00 0.00 0.00 84 1015.2
20260905064608 25 0 0.0 3.2 0.00 0.00 0.00 82 1015.4
20260905063103 25 225 0.0 1.6 0.00 0.00 0.00 82 1015.4
20260905061607 25 0 0.0 1.6 0.00 0.00 0.00 81 1015.6
20260905060109 26 0 0.0 3.2 0.00 0.00 0.00 80 1015.7
20260905054608 25 0 0.0 0.0 0.00 0.00 0.00 81 1015.8
20260905053104 25 0 0.0 0.0 0.00 0.00 0.00 82 1015.8